• In Slovakia
  • List of Countries
  • For 7 days
  • Water Temperature
  • Satellite Maps
  • Weather Map
  • Weather Widgets
  • user-avatar
    Login

    Hourly Weather Puyo

    Today, 17 August, Friday

    Time Temperature Precipitation Wind Pressure Humidity
    00:00 +20°C° 0.2 mm 1 mps 674 mmHg 81%
    01:00 +20°C° 0.2 mm 1 mps 674 mmHg 79%
    02:00 +20°C° 0.2 mm 1 mps 673 mmHg 79%
    03:00 +20°C° 0.2 mm 1 mps 673 mmHg 79%
    04:00 +19°C° 0.2 mm 1 mps 673 mmHg 78%
    05:00 +20°C° 0.2 mm 1 mps 673 mmHg 78%
    06:00 +20°C° 0.2 mm 1 mps 673 mmHg 78%
    07:00 +20°C° 0.2 mm 1 mps 674 mmHg 78%
    08:00 +21°C° 0.2 mm 1 mps 674 mmHg 76%
    09:00 +22°C° 0.2 mm 1 mps 674 mmHg 74%
    10:00 +23°C° 0.2 mm 1 mps 675 mmHg 72%
    11:00 +24°C° 0.1 mm 1 mps 674 mmHg 70%
    12:00 +25°C° 0.1 mm 1 mps 674 mmHg 68%
    13:00 +25°C° 0.1 mm 2 mps 674 mmHg 66%
    14:00 +26°C° 0.2 mm 2 mps 673 mmHg 64%
    15:00 +26°C° 0.2 mm 2 mps 673 mmHg 63%
    16:00 +26°C° 0.2 mm 2 mps 672 mmHg 62%
    17:00 +25°C° 0.2 mm 1 mps 672 mmHg 71%
    18:00 +23°C° 0.2 mm 1 mps 672 mmHg 81%
    19:00 +21°C° 0.2 mm 1 mps 672 mmHg 91%
    20:00 +20°C° 0.3 mm 1 mps 672 mmHg 90%
    21:00 +20°C° 0.3 mm 1 mps 673 mmHg 90%
    22:00 +20°C° 0.3 mm 1 mps 673 mmHg 90%
    23:00 +20°C° 0.1 mm 1 mps 673 mmHg 88%

    Tomorrow, 18 August, Saturday

    Time Temperature Precipitation Wind Pressure Humidity
    00:00 +20°C° 0.1 mm 1 mps 673 mmHg 86%
    01:00 +20°C° 0.1 mm 1 mps 673 mmHg 84%
    02:00 +20°C° 0.1 mm 1 mps 672 mmHg 83%
    03:00 +20°C° 0.1 mm 1 mps 672 mmHg 82%
    04:00 +19°C° 0.1 mm 1 mps 672 mmHg 80%
    05:00 +20°C° 0 mm 1 mps 672 mmHg 79%
    06:00 +20°C° 0 mm 1 mps 672 mmHg 78%
    07:00 +20°C° 0 mm 1 mps 672 mmHg 76%
    08:00 +22°C° 0 mm 1 mps 673 mmHg 69%
    09:00 +25°C° 0 mm 1 mps 674 mmHg 61%
    10:00 +27°C° 0 mm 1 mps 675 mmHg 54%
    11:00 +28°C° 0 mm 2 mps 674 mmHg 52%
    12:00 +29°C° 0 mm 2 mps 674 mmHg 51%
    13:00 +29°C° 0 mm 2 mps 673 mmHg 49%
    14:00 +29°C° 0.2 mm 2 mps 672 mmHg 52%
    15:00 +28°C° 0.2 mm 2 mps 672 mmHg 55%
    16:00 +28°C° 0.2 mm 2 mps 671 mmHg 58%
    17:00 +26°C° 0.5 mm 1 mps 671 mmHg 69%
    18:00 +23°C° 0.5 mm 1 mps 671 mmHg 80%
    19:00 +21°C° 0.5 mm 1 mps 670 mmHg 90%
    20:00 +21°C° 0.4 mm 1 mps 671 mmHg 91%
    21:00 +21°C° 0.4 mm 1 mps 672 mmHg 91%
    22:00 +20°C° 0.4 mm 1 mps 672 mmHg 92%
    23:00 +20°C° 0.2 mm 1 mps 672 mmHg 91%

    Day after tomorrow, 19 August, Sunday

    Time Temperature Precipitation Wind Pressure Humidity
    00:00 +20°C° 0.2 mm 1 mps 672 mmHg 90%
    01:00 +20°C° 0.2 mm 1 mps 672 mmHg 89%
    02:00 +19°C° 0.2 mm 1 mps 671 mmHg 88%
    03:00 +19°C° 0.2 mm 1 mps 671 mmHg 87%
    04:00 +19°C° 0.2 mm 1 mps 671 mmHg 85%
    05:00 +19°C° 0 mm 1 mps 671 mmHg 83%
    06:00 +20°C° 0 mm 1 mps 671 mmHg 80%
    07:00 +20°C° 0 mm 1 mps 672 mmHg 78%
    08:00 +23°C° 0 mm 1 mps 673 mmHg 67%
    09:00 +25°C° 0 mm 1 mps 674 mmHg 57%
    10:00 +28°C° 0 mm 2 mps 674 mmHg 47%
    11:00 +29°C° 0 mm 2 mps 674 mmHg 45%
    12:00 +30°C° 0 mm 2 mps 673 mmHg 44%
    13:00 +31°C° 0 mm 2 mps 673 mmHg 42%
    14:00 +30°C° 0 mm 2 mps 672 mmHg 43%
    15:00 +30°C° 0 mm 2 mps 671 mmHg 43%
    16:00 +30°C° 0 mm 2 mps 671 mmHg 44%
    17:00 +27°C° 0.2 mm 2 mps 671 mmHg 58%
    18:00 +24°C° 0.2 mm 1 mps 671 mmHg 71%
    19:00 +22°C° 0.2 mm 1 mps 671 mmHg 84%
    20:00 +21°C° 0.5 mm 1 mps 671 mmHg 86%
    21:00 +21°C° 0.5 mm 1 mps 672 mmHg 88%
    22:00 +20°C° 0.5 mm 1 mps 672 mmHg 89%
    23:00 +20°C° 0.1 mm 1 mps 672 mmHg 88%

    20 August, Monday

    Time Temperature Precipitation Wind Pressure Humidity
    00:00 +20°C° 0.1 mm 1 mps 672 mmHg 86%
    01:00 +19°C° 0.1 mm 1 mps 672 mmHg 84%
    02:00 +19°C° 0 mm 1 mps 671 mmHg 81%
    03:00 +19°C° 0 mm 1 mps 671 mmHg 78%
    04:00 +19°C° 0 mm 1 mps 671 mmHg 75%
    05:00 +20°C° 0 mm 1 mps 671 mmHg 73%
    06:00 +20°C° 0 mm 1 mps 672 mmHg 70%
    07:00 +20°C° 0 mm 1 mps 672 mmHg 67%
    08:00 +21°C° 0.1 mm 1 mps 673 mmHg 66%
    09:00 +22°C° 0.1 mm 1 mps 674 mmHg 64%
    10:00 +23°C° 0.1 mm 1 mps 674 mmHg 63%
    11:00 +25°C° 0.1 mm 1 mps 674 mmHg 60%
    12:00 +26°C° 0.1 mm 1 mps 674 mmHg 57%
    13:00 +27°C° 0.1 mm 1 mps 673 mmHg 55%
    14:00 +28°C° 0.1 mm 2 mps 673 mmHg 53%
    15:00 +28°C° 0.1 mm 2 mps 672 mmHg 52%
    16:00 +28°C° 0.1 mm 2 mps 671 mmHg 50%
    17:00 +26°C° 0.2 mm 1 mps 672 mmHg 60%
    18:00 +24°C° 0.2 mm 1 mps 672 mmHg 70%
    19:00 +22°C° 0.2 mm 1 mps 672 mmHg 79%
    20:00 +21°C° 0.6 mm 1 mps 672 mmHg 81%
    21:00 +21°C° 0.6 mm 1 mps 673 mmHg 83%
    22:00 +20°C° 0.6 mm 1 mps 673 mmHg 85%
    23:00 +20°C° 0.4 mm 1 mps 673 mmHg 84%

    21 August, Tuesday

    Time Temperature Precipitation Wind Pressure Humidity
    00:00 +20°C° 0.4 mm 1 mps 673 mmHg 83%
    01:00 +20°C° 0.4 mm 1 mps 672 mmHg 82%
    02:00 +20°C° 0.2 mm 1 mps 672 mmHg 82%
    03:00 +20°C° 0.2 mm 1 mps 672 mmHg 82%
    04:00 +20°C° 0.2 mm 1 mps 671 mmHg 82%
    05:00 +20°C° 0.3 mm 1 mps 672 mmHg 82%
    06:00 +20°C° 0.3 mm 1 mps 672 mmHg 82%
    07:00 +20°C° 0.3 mm 1 mps 672 mmHg 82%
    08:00 +22°C° 0.3 mm 1 mps 673 mmHg 76%
    09:00 +24°C° 0.3 mm 1 mps 674 mmHg 70%
    10:00 +26°C° 0.3 mm 1 mps 675 mmHg 63%
    11:00 +27°C° 0.2 mm 1 mps 674 mmHg 60%
    12:00 +28°C° 0.2 mm 1 mps 674 mmHg 57%
    13:00 +29°C° 0.2 mm 1 mps 673 mmHg 54%
    14:00 +28°C° 0.2 mm 2 mps 673 mmHg 55%
    15:00 +28°C° 0.2 mm 2 mps 672 mmHg 56%
    16:00 +28°C° 0.2 mm 2 mps 671 mmHg 56%
    17:00 +25°C° 0.8 mm 2 mps 671 mmHg 67%
    18:00 +23°C° 0.8 mm 1 mps 671 mmHg 78%
    19:00 +21°C° 0.8 mm 1 mps 672 mmHg 89%
    20:00 +21°C° 0.5 mm 1 mps 672 mmHg 90%
    21:00 +20°C° 0.5 mm 1 mps 673 mmHg 90%
    22:00 +20°C° 0.5 mm 1 mps 673 mmHg 90%
    23:00 +20°C° 0.3 mm 1 mps 673 mmHg 89%

    22 August, Wednesday

    Time Temperature Precipitation Wind Pressure Humidity
    00:00 +20°C° 0.3 mm 1 mps 673 mmHg 88%
    01:00 +20°C° 0.3 mm 1 mps 672 mmHg 87%
    02:00 +20°C° 0.3 mm 1 mps 672 mmHg 87%
    03:00 +20°C° 0.3 mm 1 mps 672 mmHg 87%
    04:00 +20°C° 0.3 mm 1 mps 671 mmHg 87%
    05:00 +20°C° 0.5 mm 1 mps 672 mmHg 88%
    06:00 +20°C° 0.5 mm 1 mps 672 mmHg 88%
    07:00 +20°C° 0.5 mm 1 mps 672 mmHg 89%
    08:00 +21°C° 0.6 mm 1 mps 673 mmHg 86%
    09:00 +22°C° 0.6 mm 1 mps 673 mmHg 84%
    10:00 +23°C° 0.6 mm 1 mps 674 mmHg 81%
    11:00 +24°C° 0.5 mm 1 mps 673 mmHg 78%
    12:00 +25°C° 0.5 mm 1 mps 673 mmHg 74%
    13:00 +26°C° 0.5 mm 1 mps 672 mmHg 71%
    14:00 +26°C° 0.6 mm 1 mps 672 mmHg 73%
    15:00 +25°C° 0.6 mm 1 mps 671 mmHg 76%
    16:00 +25°C° 0.6 mm 1 mps 670 mmHg 78%
    17:00 +24°C° 0.5 mm 1 mps 671 mmHg 83%
    18:00 +22°C° 0.5 mm 1 mps 671 mmHg 88%
    19:00 +21°C° 0.5 mm 1 mps 671 mmHg 93%
    20:00 +21°C° 0.4 mm 1 mps 672 mmHg 93%
    21:00 +20°C° 0.4 mm 1 mps 672 mmHg 92%
    22:00 +20°C° 0.4 mm 1 mps 673 mmHg 91%
    23:00 +20°C° 0.2 mm 1 mps 672 mmHg 90%
    Show more